Regional Weather Roundup
Issued by NWS Cleveland, OH

Home | Current Version | Previous Version | Graphics & Text | Print | Product List | Glossary On
Versions: 1 2 3 4 5 6 7 8 9 10 11 12 13 14 15 16 17 18 19 20 21 22 23 24 25 26 27 28 29 30 31 32 33 34 35 36 37 38 39 40 41 42 43 44 45 46 47 48 49 50
000
ASUS41 KCLE 161902
RWRCLE
OHIO REGIONAL WEATHER ROUNDUP
NATIONAL WEATHER SERVICE CLEVELAND, OH
300 PM EDT TUE SEP 16 2014

NOTE: "FAIR" INDICATES FEW OR NO CLOUDS BELOW 12,000 FEET WITH NO
SIGNIFICANT WEATHER AND/OR OBSTRUCTIONS TO VISIBILITY.

OHZ001>008-015>018-024>027-034-035-043-044-162000-
   NORTHWEST OHIO

CITY           SKY/WX    TMP DP  RH WIND       PRES   REMARKS
DEFIANCE       SUNNY     65  44  46 CALM      30.13F
FINDLAY        PTSUNNY   67  46  47 NE3       30.11F
TOLEDO EXPRESS PTSUNNY   62  43  49 VRB5      30.12F
TOLEDO EXEC    MOSUNNY   65  45  48 W8        30.13F
LIMA           PTSUNNY   64  49  57 W7        30.14F
$$

OHZ009>014-019>023-028>033-038-089-162000-
   NORTHEAST OHIO

CITY           SKY/WX    TMP DP  RH WIND       PRES   REMARKS
CLE-HOPKINS    PTSUNNY   63  50  62 NW7       30.13F
CLE-LAKEFRONT  MOSUNNY   63  51  65 NW8       30.11F
CUY CO. ARPT   NOT AVBL
LORAIN-ELYRIA  PTSUNNY   66  51  58 N8        30.12F
ASHTABULA      PTSUNNY   65  48  54 N9        30.11F
AKRON-CANTON   PTSUNNY   63  51  65 N7        30.10F
WOOSTER        MOSUNNY   67  49  52 VRB3      30.11F
MANSFIELD      PTSUNNY   65  49  56 NW9       30.11F
YOUNGSTOWN     PTSUNNY   65  49  56 NW6       30.09F
$$

OHZ042-051>053-060>062-070>072-077>081-162000-
  SOUTHWEST OHIO

CITY           SKY/WX    TMP DP  RH WIND       PRES   REMARKS
CINC-COVINGTON CLOUDY    61  49  64 N3        30.14F
CINC-LUNKEN    CLOUDY    61  52  72 E6        30.15F
HAMILTON       CLOUDY    62  50  64 CALM      30.16F
DAYTON         CLOUDY    61  50  67 CALM      30.16F
WRIGHT-PAT AFB CLOUDY    59  49  68 VRB1      30.15F
DAYTON GENERAL CLOUDY    60  51  72 N3        30.14F
WILMINGTON     CLOUDY    59  49  69 N3        30.14F
$$

OHZ036-037-039>041-045>050-054>059-063>069-073>076-082>088-162000-
  CENTRAL AND SOUTHEAST OHIO

CITY           SKY/WX    TMP DP  RH WIND       PRES   REMARKS
COLUMBUS       CLOUDY    64  49  57 CALM      30.13F
OSU AIRPORT    CLOUDY    61  49  64 CALM      30.14S
BOLTON FIELD   CLOUDY    61  52  72 CALM      30.14F
RICKENBACK AFB NOT AVBL
NEWARK         CLOUDY    62  51  67 NW3       30.13F
MARION         CLOUDY    62  50  64 CALM      30.13F
LANCASTER      CLOUDY    63  50  62 N5        30.14F
ZANESVILLE     PTSUNNY   66  50  56 NW10      30.12F
NEW PHILLY     PTSUNNY   67  52  58 S5        30.10F
$$


USA.gov is the U.S. government's official web portal to all federal, state and local government web resources and services.